[[{"header":{"parameterUnit":"m.s-1","parameterCategory":1,"la1":30.2991,"la2":30.254,"lo1":-89.0895,"lo2":-89.0444,"dx":0.0017,"dy":0.0017,"nx":28,"ny":28,"refTime":"2022-12-18T15:00:00:Z","depth":0,"parameterNumber":2,"parameterNumberName":"U-component_of_WINDS"},"data":[0,0,0,0,0,0,0,0,0,0,0,0,0,0,0,0,0,0,0,0,0,0,0,0,0,0,0,0,0,0,0,0,0,0,0,0,0,0,0,0,0,0,0,0,0,0,0,0,0,0,0,0,0,0,0,0,0,0,0.1179,0.1179,0,0.1114,0.1113,0.1113,0.1141,0.1142,0.1144,0.1145,0.1075,0.1072,0.1069,0,0,0,0,0,0,0,0,0,0,0,0,0,0.1325,0.1323,0.1179,0.1179,0.1178,0.1114,0.1113,0.1112,0.114,0.1142,0.1144,0.1146,0.1076,0.1072,0.1068,0,0,0,0,0,0,0,0,0,0,0,0,0,0.1261,0.1322,0.1179,0.1184,0.1184,0.1114,0.1113,0.1112,0.114,0.1142,0.1145,0.1147,0.1078,0.1073,0.1068,0.0989,0,0,0.1052,0.105,0,0,0,0,0,0,0,0,0.1265,0.1256,0.1184,0.1184,0.1183,0.1138,0.1139,0.1071,0.1139,0.1157,0.1145,0.1148,0.1094,0.1088,0.107,0.0985,0.0982,0.1052,0.1049,0.1047,0.1045,0,0,0,0,0,0,0,0.1269,0.1259,0.1153,0.1183,0.1183,0.1189,0.1182,0.1126,0.1112,0.1155,0.1157,0.1149,0.1094,0.1075,0.1069,0.0981,0.1052,0.1047,0.1044,0.1042,0.0828,0.0825,0,0,0,0,0,0,0.1274,0.1262,0.1155,0.1151,0.1231,0.1184,0.1177,0.115,0.1113,0.111,0.1147,0.1151,0.1082,0.1074,0.1066,0.097,0.1047,0.1042,0.1039,0.083,0.0827,0.0824,0,0,0,0,0,0,0.1277,0.1264,0.1158,0.1207,0.1194,0.1179,0.1149,0.1148,0.1128,0.1107,0.1105,0.113,0.1084,0.1073,0.1008,0.0968,0.104,0.1035,0.0833,0.0829,0.0826,0.0777,0,0,0,0,0,0,0.1281,0.1265,0.1235,0.1207,0.1192,0.1101,0.1146,0.1145,0.112,0.1124,0.109,0.1087,0.1085,0.1015,0.1003,0.0962,0.1031,0.0837,0.0832,0.0827,0.0782,0.0772,0.0763,0,0,0,0,0,0.1286,0.1224,0.1234,0.1221,0.1154,0.1099,0.109,0.109,0.1117,0.1086,0.1073,0.1088,0.0975,0.1008,0.0994,0.0952,0.0839,0.0833,0.0827,0.0786,0.0774,0.0764,0,0,0,0,0,0,0.1247,0.122,0.1231,0.1157,0.113,0.1104,0.1065,0.1077,0.1041,0.1046,0.1046,0.1038,0.097,0.0955,0.0992,0.0873,0.0911,0.0902,0.0885,0.0873,0.0864,0.0867,0.1027,0,0,0,0,0,0.123,0.1188,0.1167,0.1104,0.109,0.108,0.1056,0.1058,0.103,0.1018,0.1,0.0971,0.0928,0.09,0.086,0.0782,0.0774,0.0746,0.0736,0.0728,0.0719,0.0675,0.0662,0.0804,0.0804,0.0804,0,0,0.1194,0.1174,0.1148,0.1096,0.1075,0.1031,0.107,0.1022,0.0988,0.101,0.0947,0.0933,0.09,0.0827,0.0794,0.0812,0.0679,0.0721,0.0715,0.071,0.0668,0.0654,0.0642,0.08,0.0801,0.0802,0,0,0.1105,0.1087,0.1032,0.1011,0.098,0.0974,0.0961,0.0932,0.0924,0.0861,0.0876,0.0837,0.0765,0.074,0.0719,0.0622,0.0635,0.061,0.0559,0.0516,0.0504,0.0494,0.0458,0.0445,0.0602,0.0601,0.0601,0,0.1063,0.0998,0.1002,0.0952,0.0928,0.0948,0.0892,0.0871,0.0828,0.081,0.0832,0.0742,0.0722,0.0643,0.0619,0.0602,0.0586,0.0612,0.0506,0.0496,0.0487,0.0452,0.0438,0.0598,0.0599,0.0599,0.0599,0,0.0947,0.0902,0.0861,0.082,0.0792,0.0739,0.0734,0.0705,0.0711,0.0702,0.0637,0.0614,0.057,0.0552,0.0556,0.0473,0.0485,0.0507,0.0544,0.047,0.0437,0.0424,0.0594,0.0595,0.0596,0.0597,0,0,0.0829,0.0792,0.0777,0.0758,0.0726,0.069,0.0638,0.0596,0.057,0.0541,0.0496,0.0435,0.0455,0.043,0.0432,0.0395,0.0318,0.0421,0.042,0.04,0.0223,0.0205,0.0189,0.0328,0.0325,0.0323,0.0225,0,0.0735,0.0645,0.0647,0.0563,0.052,0.0539,0.0494,0.0469,0.046,0.0422,0.0412,0.0368,0.0399,0.0384,0.0348,0.0335,0.0282,0.0342,0.0284,0.0281,0.0288,0.0173,0.0153,0.0061,0.0212,0.021,0.0209,0,0.0613,0.058,0.0491,0.0466,0.0448,0.0407,0.0368,0.0332,0.0304,0.03,0.0274,0.0282,0.0229,0.0271,0.0196,0.0237,0.0214,0.0204,0.02,0.0192,0.0238,0.0158,0.0032,0.0017,0.0189,0.019,0.0192,0,0.0532,0.0466,0.0404,0.0388,0.0357,0.0328,0.0313,0.0288,0.0262,0.0229,0.0212,0.0172,0.0149,0.0118,0.0115,0.0147,0.0039,0.0082,0.0033,0.0033,0.0006,0.0007,-0.0128,-0.0003,-0.0003,-0.0003,-0.0003,0,0.0426,0.037,0.0367,0.0329,0.0267,0.0271,0.0209,0.0198,0.0175,0.0134,0.0149,0.011,0.011,0.007,0.0068,0.0006,-0.0004,-0.001,-0.0011,-0.0013,-0.0013,-0.0031,-0.0026,-0.0007,-0.0006,-0.0005,-0.0004,0,0.0323,0.032,0.0253,0.023,0.0223,0.0178,0.0158,0.012,0.0114,0.0062,0.005,0.0039,-0.0007,-0.0012,-0.0065,-0.0067,-0.0143,-0.0135,-0.0134,-0.0134,-0.0183,-0.018,-0.0338,-0.0359,-0.0218,-0.0219,-0.022,0,0.0254,0.0211,0.0184,0.0158,0.0142,0.0101,0.0075,0.0078,0.005,0.0016,-0.0018,-0.0062,-0.0098,-0.0172,-0.0186,-0.0227,-0.0222,-0.0274,-0.0228,-0.023,-0.0226,-0.0225,-0.023,-0.0284,-0.0286,-0.0287,-0.0288,0,0.013,0.0131,0.0093,0.0055,0.0025,-0.0005,-0.0033,-0.0055,-0.0056,-0.0088,-0.0134,-0.0162,-0.0216,-0.0261,-0.0301,-0.0317,-0.0304,-0.0302,-0.0316,-0.0321,-0.0319,-0.0324,-0.0162,-0.0299,-0.0298,-0.0297,-0.0297,-0.0296,0.004,0.0003,-0.0022,-0.0064,-0.0084,-0.0111,-0.0147,-0.0157,-0.0195,-0.0239,-0.0234,-0.0286,-0.0313,-0.0365,-0.0384,-0.0425,-0.0408,-0.0427,-0.0433,-0.0438,-0.0445,-0.031,-0.0432,-0.0431,-0.0431,-0.0431,-0.0431,0,-0.0086,-0.01,-0.0138,-0.0178,-0.0211,-0.0192,-0.0222,-0.0252,-0.0297,-0.0323,-0.0357,-0.0411,-0.0454,-0.047,-0.0512,-0.0542,-0.0537,-0.0553,-0.0553,-0.0557,-0.0457,-0.0442,-0.0557,-0.0557,-0.0557,-0.0557,-0.0557,-0.0557,-0.0155,-0.0217,-0.0219,-0.0292,-0.0306,-0.0356,-0.0375,-0.0399,-0.0419,-0.048,-0.0515,-0.0524,-0.0546,-0.0589,-0.0628,-0.0631,-0.0649,-0.0669,-0.067,-0.0577,-0.0564,-0.0552,-0.0538,-0.0672,-0.0672,-0.0767,-0.0768,-0.0769]},{"header":{"parameterUnit":"m.s-1","parameterCategory":1,"la1":30.2991,"la2":30.254,"lo1":-89.0895,"lo2":-89.0444,"dx":0.0017,"dy":0.0017,"nx":28,"ny":28,"refTime":"2022-12-18T15:00:00:Z","depth":0,"parameterNumber":3,"parameterNumberName":"V-component_of_WINDS"},"data":[0,0,0,0,0,0,0,0,0,0,0,0,0,0,0,0,0,0,0,0,0,0,0,0,0,0,0,0,0,0,0,0,0,0,0,0,0,0,0,0,0,0,0,0,0,0,0,0,0,0,0,0,0,0,0,0,0,0,-5.5563,-5.5564,0,-5.5733,-5.5735,-5.5736,-5.5658,-5.5654,-5.565,-5.5646,-5.5816,-5.5824,-5.5833,0,0,0,0,0,0,0,0,0,0,0,0,0,-5.5166,-5.5174,-5.5562,-5.5565,-5.5567,-5.5732,-5.5735,-5.5737,-5.5659,-5.5654,-5.5649,-5.5644,-5.5813,-5.5823,-5.5834,0,0,0,0,0,0,0,0,0,0,0,0,0,-5.5338,-5.5177,-5.5562,-5.5548,-5.5548,-5.5732,-5.5735,-5.5738,-5.566,-5.5654,-5.5647,-5.5641,-5.581,-5.5822,-5.5835,-5.6041,0,0,-5.5874,-5.5879,0,0,0,0,0,0,0,0,-5.5328,-5.5352,-5.5548,-5.5549,-5.555,-5.5668,-5.5657,-5.5839,-5.5662,-5.5618,-5.5646,-5.5638,-5.5772,-5.5787,-5.5833,-5.6049,-5.6056,-5.5875,-5.5883,-5.5888,-5.5892,0,0,0,0,0,0,0,-5.5316,-5.5344,-5.563,-5.5551,-5.5552,-5.5532,-5.5549,-5.5691,-5.5728,-5.5621,-5.5616,-5.5637,-5.5771,-5.5821,-5.5836,-5.6059,-5.5875,-5.5886,-5.5894,-5.5899,-5.6453,-5.646,0,0,0,0,0,0,-5.5305,-5.5335,-5.5624,-5.5635,-5.5421,-5.5544,-5.5563,-5.5636,-5.5726,-5.5734,-5.5642,-5.5633,-5.5802,-5.5822,-5.5842,-5.609,-5.5888,-5.59,-5.5907,-5.6446,-5.6454,-5.6462,0,0,0,0,0,0,-5.5297,-5.5332,-5.5617,-5.5484,-5.5518,-5.5558,-5.564,-5.5643,-5.5693,-5.5743,-5.5748,-5.5687,-5.5798,-5.5824,-5.5993,-5.6095,-5.5906,-5.5917,-5.6437,-5.6448,-5.6458,-5.6587,0,0,0,0,0,0,-5.5286,-5.5329,-5.5409,-5.5486,-5.5526,-5.5767,-5.5647,-5.5651,-5.5716,-5.5705,-5.5786,-5.5793,-5.5795,-5.5974,-5.6005,-5.6109,-5.5927,-5.6428,-5.6442,-5.6455,-5.6574,-5.6601,-5.6624,0,0,0,0,0,-5.5272,-5.5438,-5.5414,-5.5449,-5.5627,-5.5773,-5.5795,-5.5795,-5.5724,-5.5804,-5.5836,-5.5791,-5.6078,-5.5992,-5.6026,-5.6136,-5.6422,-5.6438,-5.6454,-5.6563,-5.6596,-5.6624,0,0,0,0,0,0,-5.5371,-5.5448,-5.5422,-5.5617,-5.5689,-5.5759,-5.586,-5.583,-5.5922,-5.5908,-5.5902,-5.5922,-5.6096,-5.6132,-5.6035,-5.634,-5.6239,-5.6263,-5.631,-5.6342,-5.6366,-5.6355,-5.5938,0,0,0,0,0,-5.5415,-5.5529,-5.5589,-5.5756,-5.5794,-5.5821,-5.5885,-5.5878,-5.5952,-5.5982,-5.6026,-5.6098,-5.6204,-5.6275,-5.6375,-5.6578,-5.6595,-5.667,-5.6695,-5.6715,-5.6736,-5.6846,-5.6881,-5.6514,-5.6514,-5.6514,0,0,-5.5508,-5.5565,-5.5636,-5.5777,-5.5832,-5.5949,-5.5847,-5.5975,-5.6061,-5.6,-5.6163,-5.6198,-5.6278,-5.6465,-5.6549,-5.65,-5.6841,-5.6736,-5.6752,-5.6762,-5.6866,-5.6901,-5.6932,-5.6525,-5.6523,-5.6521,0,0,-5.5738,-5.5792,-5.5938,-5.5995,-5.608,-5.6097,-5.6132,-5.6207,-5.6228,-5.6391,-5.6349,-5.645,-5.6634,-5.6693,-5.6747,-5.6999,-5.6961,-5.7031,-5.7162,-5.727,-5.7299,-5.7324,-5.7415,-5.7447,-5.7052,-5.7052,-5.7052,0,-5.5843,-5.6019,-5.6016,-5.6148,-5.6211,-5.6162,-5.6309,-5.6364,-5.6477,-5.6521,-5.6465,-5.6695,-5.6745,-5.6945,-5.7007,-5.7052,-5.7091,-5.7023,-5.7295,-5.7321,-5.7344,-5.7431,-5.7465,-5.706,-5.7059,-5.7058,-5.7058,0,-5.6144,-5.6266,-5.6373,-5.6485,-5.656,-5.6699,-5.6715,-5.6791,-5.6778,-5.6801,-5.6967,-5.7026,-5.7138,-5.7184,-5.7172,-5.7383,-5.735,-5.7295,-5.7194,-5.7388,-5.7469,-5.7502,-5.7072,-5.7069,-5.7066,-5.7064,0,0,-5.6442,-5.655,-5.659,-5.664,-5.673,-5.6824,-5.696,-5.7071,-5.7136,-5.7215,-5.7329,-5.7485,-5.7434,-5.7496,-5.7489,-5.7584,-5.778,-5.7516,-5.7518,-5.7564,-5.8017,-5.8059,-5.8098,-5.7755,-5.7761,-5.7766,-5.801,0,-5.6679,-5.6919,-5.692,-5.714,-5.7253,-5.7208,-5.7326,-5.7393,-5.7418,-5.7516,-5.7542,-5.7654,-5.7578,-5.7615,-5.7706,-5.7737,-5.7871,-5.7719,-5.786,-5.7865,-5.7843,-5.814,-5.8185,-5.8413,-5.8042,-5.8047,-5.8051,0,-5.6988,-5.7079,-5.7312,-5.7385,-5.7433,-5.7539,-5.7641,-5.7735,-5.781,-5.7821,-5.789,-5.787,-5.8006,-5.79,-5.8089,-5.7986,-5.8043,-5.8067,-5.8075,-5.809,-5.7971,-5.8163,-5.8485,-5.852,-5.8101,-5.8097,-5.8093,0,-5.7184,-5.7364,-5.7526,-5.757,-5.766,-5.7736,-5.7777,-5.7846,-5.7912,-5.8,-5.8043,-5.8146,-5.8202,-5.8281,-5.8288,-5.821,-5.8478,-5.8373,-5.8491,-5.8491,-5.8551,-5.8547,-5.8888,-5.8586,-5.8585,-5.8585,-5.8584,0,-5.7449,-5.7593,-5.7615,-5.7716,-5.7875,-5.7874,-5.8032,-5.8065,-5.8127,-5.8232,-5.8198,-5.8297,-5.83,-5.84,-5.8406,-5.8562,-5.8587,-5.8599,-5.8599,-5.8604,-5.8602,-5.8642,-5.8627,-5.8594,-5.8592,-5.859,-5.8588,0,-5.7695,-5.7716,-5.789,-5.7961,-5.7982,-5.8097,-5.8157,-5.8252,-5.8272,-5.8406,-5.8437,-5.847,-5.8587,-5.8601,-5.8737,-5.8741,-5.8929,-5.8911,-5.8904,-5.8902,-5.902,-5.9009,-5.94,-5.9451,-5.9114,-5.9117,-5.912,0,-5.7864,-5.7974,-5.8057,-5.8126,-5.8171,-5.8282,-5.835,-5.8352,-5.8424,-5.8518,-5.8602,-5.8715,-5.8807,-5.8996,-5.9031,-5.9134,-5.912,-5.9249,-5.9135,-5.9136,-5.9123,-5.9117,-5.9128,-5.9272,-5.9276,-5.9279,-5.9281,0,-5.8162,-5.8167,-5.8267,-5.8372,-5.8455,-5.8537,-5.8613,-5.8671,-5.8683,-5.8765,-5.8885,-5.8956,-5.9096,-5.9209,-5.9311,-5.9351,-5.9319,-5.9317,-5.935,-5.9356,-5.9348,-5.9355,-5.8966,-5.9308,-5.9305,-5.9303,-5.9302,-5.9301,-5.8376,-5.8472,-5.8546,-5.8659,-5.8717,-5.8789,-5.8883,-5.8915,-5.9016,-5.9131,-5.9125,-5.9258,-5.9329,-5.9463,-5.9511,-5.9613,-5.957,-5.9618,-5.963,-5.9642,-5.9655,-5.933,-5.9631,-5.9631,-5.963,-5.9629,-5.9629,0,-5.8673,-5.8719,-5.8823,-5.8932,-5.9021,-5.8983,-5.9066,-5.9142,-5.926,-5.9329,-5.942,-5.9558,-5.9668,-5.9711,-5.9818,-5.9892,-5.988,-5.992,-5.9915,-5.9925,-5.9687,-5.9648,-5.9928,-5.9928,-5.9928,-5.9928,-5.9928,-5.9928,-5.8839,-5.9,-5.9013,-5.9202,-5.9245,-5.9376,-5.9427,-5.9493,-5.9549,-5.9705,-5.9797,-5.9825,-5.9884,-5.9995,-6.0094,-6.0103,-6.0145,-6.0192,-6.0196,-5.9972,-5.9942,-5.9913,-5.9877,-6.0201,-6.0201,-6.0426,-6.0428,-6.043]}]]